Starlink 31753

operational
NORAD ID: 59484 Int'l Des: 2024-071 Owner: SPXS Country: US Constellation: starlink
LEOCIRCULAR

Starlink 31753について

説明を読み込み中...

リアルタイム位置

3D地球を読み込み中...

次回通過

高度履歴

Altitude vs Time

uPlot chart will show altitude changes over time

軌道要素

1 59484U 24071A 25352.60343470 .00004653 00000-0 17849-3 0 9998
2 59484 42.9983 77.7548 0001237 266.5120 93.5590 15.27585262 95806
Epoch: Dec 18, 2025 • Age: 15 hours

現在のステータス

高度 482.9 km
速度 7.63 km/s
衛星直下点 -0.54°S, 85.85°E
打ち上げ日 Apr 13, 2024
運用期間 1.6 years
タイプ internet

技術仕様

分類 Payload
質量 730.00 kg
乾燥質量 700.00 kg
総質量 730.00 kg
長さ 0.30 m
直径 4.10 m
スパン 29.00 m
形状 Box + pan
製造者 SPXS
バスタイプ Starlink V2M
フェーズステータス In Orbit
所有者/国 SPXS/US

大規模コンステレーション

Loading constellations...